This demonstration page uses our WeatherBlox Daily Observations layout. Learn more.

38.80484, -77.04692

Hourly Observations for April 15, 2019

Temp ( °F °C ) Dew Point ( °F °C ) Humidity (%) Winds ( mph kmh ) Pressure ( in mb ) Visibility ( mi km ) Precip ( " mm )
12:47 am 00:47 Mostly Cloudy with Thunderstorms 73 23 64 18 74 74 S 17 28 29.42 996 10 16.0934 0 0
12:52 am 00:52 Mostly Cloudy with Thunderstorms 73 22.8 64 17.8 74 74 S 22 35 29.42 996 10 16.0934 0 0
1:10 am 01:10 Mostly Cloudy with Light Rain 75 23.9 64 17.8 69 69 S 20 31 29.41 996 10 16.0934 0 0.0254
1:22 am 01:22 Cloudy with Light Rain 73 22.8 66 18.9 79 79 SW 24 39 29.42 996 2 3.21868 0.04 1.016
1:30 am 01:30 Cloudy with Heavy Thunderstorms 69 20.6 64 17.8 84 84 SSW 26 43 29.4 996 0.5 0.80467 0.25 6.35
1:38 am 01:38 Windy with Storms Likely 70 21.1 65 18.3 84 84 SW 23 37 29.4 996 7 11.26538 0.48 12.192
1:49 am 01:49 Cloudy with Light Rain 72 22 66 19 83 83 SW 14 22 29.39 995 10 16.0934 0.48 12.192
1:52 am 01:52 Cloudy with Light Rain 71 21.7 66 18.9 84 84 SW 15 24 29.39 995 10 16.0934 0.48 12.192
2:03 am 02:03 Cloudy with Light Thunderstorms 71 21.7 66 18.9 84 84 SW 9 15 29.4 996 9 14.48406 0.02 0.508
2:39 am 02:39 Mostly Cloudy with Light Rain 67 19.4 60 15.6 79 79 SSW 16 26 29.41 996 10 16.0934 0.03 0.762
2:49 am 02:49 Cloudy with Rain 66 19 61 16 83 83 W 12 19 29.42 996 6 9.65604 0.04 1.016
2:52 am 02:52 Cloudy with Rain 67 19.4 61 16.1 81 81 W 15 24 29.42 996 6 9.65604 0.06 1.524
2:59 am 02:59 Mostly Cloudy with Light Rain 68 20 59 15 73 73 W 10 17 29.43 997 10 16.0934 0 0.0254
3:52 am 03:52 Mostly Cloudy 65 18.3 57 13.9 76 76 NW 6 9 29.39 995 10 16.0934 0 0.0254
4:52 am 04:52 Mostly Cloudy 65 18.3 57 13.9 76 76 Calm 29.4 996 10 16.0934 0 0
5:52 am 05:52 Mostly Cloudy 63 17.2 58 14.4 84 84 SSW 3 6 29.41 996 10 16.0934 0 0
6:52 am 06:52 Mostly Cloudy 63 17.2 59 15 87 87 Calm 29.43 997 10 16.0934 0 0
7:49 am 07:49 Cloudy with Heavy Rain 64 18 57 14 78 78 VRB 7 11 29.46 998 2 3.21868 0.01 0.254
7:52 am 07:52 Cloudy with Heavy Rain 63 17.2 57 13.9 81 81 W 18 30 29.45 997 1.25 2.011675 0.09 2.286
7:56 am 07:56 Cloudy with Heavy Rain 62 16.7 53 11.7 73 73 W 13 20 29.46 998 4 6.43736 0.06 1.524
8:06 am 08:06 Cloudy with Light Rain 62 16.7 54 12.2 75 75 W 9 15 29.46 998 7 11.26538 0.09 2.286
8:52 am 08:52 Cloudy with Light Rain 59 15 44 6.7 58 58 NW 22 35 29.52 1000 10 16.0934 0.09 2.286
9:52 am 09:52 Mostly Sunny 59 15 37 2.8 44 44 WNW 17 28 29.58 1002 10 16.0934 0 0.0254
10:52 am 10:52 Mostly Sunny 58 14.4 34 1.1 41 41 WNW 23 37 29.62 1003 10 16.0934 0 0
11:52 am 11:52 Mostly Sunny 59 15 35 1.7 41 41 NW 18 30 29.67 1005 10 16.0934 0 0
12:52 pm 12:52 Cloudy 56 13.3 31 -0.6 39 39 NW 26 43 29.71 1006 10 16.0934 0 0
1:52 pm 13:52 Mostly Cloudy 57 13.9 32 0 39 39 NW 25 41 29.75 1007 10 16.0934 0 0
2:52 pm 14:52 Mostly Cloudy 57 13.9 31 -0.6 37 37 WNW 25 41 29.77 1008 10 16.0934 0 0
3:52 pm 15:52 Mostly Cloudy 57 13.9 30 -1.1 36 36 WNW 24 39 29.79 1009 10 16.0934 0 0
4:52 pm 16:52 Mostly Cloudy 54 12.2 29 -1.7 38 38 WNW 28 44 29.83 1010 10 16.0934 0 0
5:52 pm 17:52 Mostly Cloudy 54 12.2 30 -1.1 40 40 WNW 23 37 29.87 1012 10 16.0934 0 0
6:52 pm 18:52 Mostly Cloudy 53 11.7 30 -1.1 41 41 NW 18 30 29.9 1013 10 16.0934 0 0
7:52 pm 19:52 Partly Cloudy 52 11.1 30 -1.1 43 43 WNW 9 15 29.93 1014 10 16.0934 0 0
8:52 pm 20:52 Mostly Cloudy 51 10.6 30 -1.1 44 44 NW 20 31 29.98 1015 10 16.0934 0 0
9:52 pm 21:52 Partly Cloudy 51 10.6 29 -1.7 43 43 NW 14 22 30.01 1016 10 16.0934 0 0
10:52 pm 22:52 Mostly Clear 50 10 29 -1.7 44 44 W 7 11 30.03 1017 10 16.0934 0 0
11:52 pm 23:52 Mostly Clear 49 9.4 30 -1.1 48 48 W 9 15 30.05 1018 10 16.0934 0 0

Powered by AerisWeather